Time,TemperatureF,DewpointF,PressureIn,WindDirection,WindDirectionDegrees,WindSpeedMPH,WindSpeedGustMPH,Humidity,HourlyPrecipIn,Conditions,Clouds,dailyrainin,SoftwareType,DateUTC
2013-04-25 00:01:00,49.6,47.5,29.17,SSE,159,2.0,3.0,92,0.00,,,0.00,meteohub,2013-04-25 04:01:00,
2013-04-25 00:02:00,49.6,47.5,29.17,SSE,160,1.0,3.0,92,0.00,,,0.00,meteohub,2013-04-25 04:02:00,
2013-04-25 00:03:00,49.6,47.5,29.17,SSE,159,0.0,3.0,92,0.00,,,0.00,meteohub,2013-04-25 04:03:00,
2013-04-25 00:05:00,49.6,47.5,29.18,SSE,160,0.0,3.0,92,0.00,,,0.00,meteohub,2013-04-25 04:05:00,
2013-04-25 00:10:00,49.6,47.5,29.17,South,188,0.0,3.0,92,0.00,,,0.00,meteohub,2013-04-25 04:10:00,
2013-04-25 00:15:00,49.8,47.7,29.17,South,188,0.0,3.0,92,0.00,,,0.00,meteohub,2013-04-25 04:15:00,
2013-04-25 00:20:00,50.0,47.8,29.18,ESE,106,1.0,3.0,92,0.00,,,0.00,meteohub,2013-04-25 04:20:00,
2013-04-25 00:25:00,50.2,48.0,29.17,SSW,203,0.0,3.0,92,0.00,,,0.00,meteohub,2013-04-25 04:25:00,
2013-04-25 00:30:00,50.2,48.0,29.18,South,170,0.0,2.0,92,0.00,,,0.00,meteohub,2013-04-25 04:30:00,
2013-04-25 00:35:00,50.4,48.2,29.18,SSW,210,2.0,2.0,92,0.00,,,0.00,meteohub,2013-04-25 04:35:00,
2013-04-25 00:40:00,50.4,48.2,29.18,SE,140,0.0,3.0,92,0.00,,,0.00,meteohub,2013-04-25 04:40:00,
2013-04-25 00:46:00,50.4,48.2,29.18,SSW,205,0.0,3.0,92,0.00,,,0.00,meteohub,2013-04-25 04:46:00,
2013-04-25 00:51:00,50.4,48.2,29.17,SSW,206,0.0,3.0,92,0.00,,,0.00,meteohub,2013-04-25 04:51:00,
2013-04-25 00:56:00,50.5,48.4,29.18,SSW,195,1.0,2.0,92,0.00,,,0.00,meteohub,2013-04-25 04:56:00,
2013-04-25 01:01:00,50.5,48.6,29.18,East,95,0.0,2.0,93,0.00,,,0.00,meteohub,2013-04-25 05:01:00,
2013-04-25 01:06:00,50.5,48.6,29.18,South,174,2.0,3.0,93,0.00,,,0.00,meteohub,2013-04-25 05:06:00,
2013-04-25 01:11:00,50.7,48.7,29.18,SSE,153,0.0,3.0,93,0.00,,,0.00,meteohub,2013-04-25 05:11:00,
2013-04-25 01:16:00,50.7,48.7,29.18,SSE,152,0.0,2.0,93,0.00,,,0.00,meteohub,2013-04-25 05:16:00,
2013-04-25 01:21:00,50.7,48.7,29.19,NNW,339,1.0,2.0,93,0.00,,,0.00,meteohub,2013-04-25 05:21:00,
2013-04-25 01:26:00,50.9,48.9,29.20,SSW,201,1.0,1.0,93,0.00,,,0.00,meteohub,2013-04-25 05:26:00,
2013-04-25 01:31:00,50.9,48.9,29.19,East,86,1.0,1.0,93,0.00,,,0.00,meteohub,2013-04-25 05:31:00,
2013-04-25 01:36:00,50.7,48.7,29.19,East,87,0.0,1.0,93,0.00,,,0.00,meteohub,2013-04-25 05:36:00,
2013-04-25 01:41:00,50.7,48.7,29.19,East,87,0.0,1.0,93,0.00,,,0.00,meteohub,2013-04-25 05:41:00,
2013-04-25 01:47:00,50.7,49.1,29.19,East,86,0.0,1.0,94,0.00,,,0.00,meteohub,2013-04-25 05:47:00,
2013-04-25 01:52:00,50.7,49.1,29.19,East,87,0.0,1.0,94,0.00,,,0.00,meteohub,2013-04-25 05:52:00,
2013-04-25 01:57:00,50.7,49.1,29.19,East,88,0.0,1.0,94,0.00,,,0.00,meteohub,2013-04-25 05:57:00,
2013-04-25 02:02:00,50.9,49.3,29.20,East,87,0.0,1.0,94,0.01,,,0.01,meteohub,2013-04-25 06:02:00,
2013-04-25 02:07:00,50.9,49.3,29.19,East,87,0.0,1.0,94,0.01,,,0.01,meteohub,2013-04-25 06:07:00,
2013-04-25 02:12:00,50.9,49.5,29.19,East,87,0.0,1.0,95,0.01,,,0.01,meteohub,2013-04-25 06:12:00,
2013-04-25 02:17:00,51.1,49.6,29.20,SSE,153,0.0,1.0,95,0.01,,,0.01,meteohub,2013-04-25 06:17:00,
2013-04-25 02:22:00,50.9,49.5,29.20,SSE,154,0.0,1.0,95,0.01,,,0.01,meteohub,2013-04-25 06:22:00,
2013-04-25 02:27:00,50.9,49.5,29.20,SSE,153,0.0,1.0,95,0.01,,,0.01,meteohub,2013-04-25 06:27:00,
2013-04-25 02:32:00,50.9,49.5,29.20,SSE,153,0.0,1.0,95,0.01,,,0.01,meteohub,2013-04-25 06:32:00,
2013-04-25 02:37:00,50.9,49.5,29.19,SSE,154,0.0,0.0,95,0.01,,,0.01,meteohub,2013-04-25 06:37:00,
2013-04-25 02:42:00,50.7,49.3,29.20,SSE,153,0.0,0.0,95,0.01,,,0.01,meteohub,2013-04-25 06:42:00,
2013-04-25 02:47:00,50.7,49.3,29.20,SSE,154,0.0,0.0,95,0.01,,,0.01,meteohub,2013-04-25 06:47:00,
2013-04-25 02:52:00,50.7,49.3,29.21,SSE,153,1.0,1.0,95,0.01,,,0.01,meteohub,2013-04-25 06:52:00,
2013-04-25 02:57:00,50.5,49.1,29.21,SSE,154,0.0,1.0,95,0.01,,,0.01,meteohub,2013-04-25 06:57:00,
2013-04-25 03:02:00,50.5,49.1,29.21,South,174,0.0,1.0,95,0.00,,,0.01,meteohub,2013-04-25 07:02:00,
2013-04-25 03:07:00,50.5,49.5,29.21,SW,215,1.0,4.0,96,0.00,,,0.01,meteohub,2013-04-25 07:07:00,
2013-04-25 03:12:00,50.7,49.6,29.21,SSW,194,1.0,4.0,96,0.00,,,0.01,meteohub,2013-04-25 07:12:00,
2013-04-25 03:17:00,50.7,49.3,29.21,ENE,70,2.0,4.0,95,0.00,,,0.01,meteohub,2013-04-25 07:17:00,
2013-04-25 03:22:00,50.7,49.1,29.21,WNW,289,0.0,4.0,94,0.00,,,0.01,meteohub,2013-04-25 07:22:00,
2013-04-25 03:27:00,50.5,48.6,29.22,ENE,77,4.0,4.0,93,0.00,,,0.01,meteohub,2013-04-25 07:27:00,
2013-04-25 03:32:00,50.5,47.7,29.22,SW,235,0.0,5.0,90,0.00,,,0.01,meteohub,2013-04-25 07:32:00,
2013-04-25 03:37:00,50.5,47.1,29.22,South,188,0.0,5.0,88,0.00,,,0.01,meteohub,2013-04-25 07:37:00,
2013-04-25 03:42:00,50.4,46.9,29.23,NE,43,1.0,5.0,88,0.00,,,0.01,meteohub,2013-04-25 07:42:00,
2013-04-25 03:47:00,50.2,46.2,29.23,NE,44,0.0,2.0,86,0.00,,,0.01,meteohub,2013-04-25 07:47:00,
2013-04-25 03:52:00,50.0,45.3,29.23,WSW,257,0.0,3.0,84,0.00,,,0.01,meteohub,2013-04-25 07:52:00,
2013-04-25 03:57:00,49.8,45.1,29.24,North,11,0.0,3.0,84,0.00,,,0.01,meteohub,2013-04-25 07:57:00,
2013-04-25 04:02:00,49.6,44.8,29.24,NNW,347,0.0,4.0,83,0.00,,,0.01,meteohub,2013-04-25 08:02:00,
2013-04-25 04:07:00,49.6,43.3,29.25,ENE,67,0.0,4.0,79,0.00,,,0.01,meteohub,2013-04-25 08:07:00,
2013-04-25 04:12:00,49.6,43.7,29.26,SE,139,0.0,4.0,80,0.00,,,0.01,meteohub,2013-04-25 08:12:00,
2013-04-25 04:17:00,49.5,43.2,29.26,East,82,0.0,4.0,79,0.00,,,0.01,meteohub,2013-04-25 08:17:00,
2013-04-25 04:22:00,49.3,43.3,29.27,NNE,18,0.0,3.0,80,0.00,,,0.01,meteohub,2013-04-25 08:22:00,
2013-04-25 04:27:00,49.3,43.7,29.28,NW,314,1.0,3.0,81,0.00,,,0.01,meteohub,2013-04-25 08:27:00,
2013-04-25 04:32:00,49.1,43.5,29.29,WNW,300,0.0,3.0,81,0.00,,,0.01,meteohub,2013-04-25 08:32:00,
2013-04-25 04:37:00,48.9,43.0,29.29,NNW,332,0.0,4.0,80,0.00,,,0.01,meteohub,2013-04-25 08:37:00,
2013-04-25 04:42:00,48.6,42.6,29.30,SSE,155,0.0,4.0,80,0.00,,,0.01,meteohub,2013-04-25 08:42:00,
2013-04-25 04:47:00,48.4,42.3,29.30,NNW,328,1.0,5.0,79,0.00,,,0.01,meteohub,2013-04-25 08:47:00,
2013-04-25 04:52:00,47.8,41.0,29.31,WNW,290,0.0,5.0,77,0.00,,,0.01,meteohub,2013-04-25 08:52:00,
2013-04-25 04:57:00,47.5,40.3,29.31,WNW,300,0.0,5.0,76,0.00,,,0.01,meteohub,2013-04-25 08:57:00,
2013-04-25 05:02:00,47.1,39.6,29.32,NW,322,0.0,3.0,75,0.00,,,0.01,meteohub,2013-04-25 09:02:00,
2013-04-25 05:07:00,46.8,38.3,29.31,North,1,1.0,5.0,72,0.00,,,0.01,meteohub,2013-04-25 09:07:00,
2013-04-25 05:12:00,46.2,38.1,29.31,ENE,67,1.0,5.0,73,0.00,,,0.01,meteohub,2013-04-25 09:12:00,
2013-04-25 05:17:00,45.9,37.0,29.32,South,173,0.0,5.0,71,0.00,,,0.01,meteohub,2013-04-25 09:17:00,
2013-04-25 05:22:00,45.7,36.5,29.32,ENE,64,1.0,5.0,70,0.00,,,0.01,meteohub,2013-04-25 09:22:00,
2013-04-25 05:27:00,45.3,37.2,29.33,NNE,19,0.0,5.0,73,0.00,,,0.01,meteohub,2013-04-25 09:27:00,
2013-04-25 05:32:00,45.1,37.4,29.34,WNW,295,0.0,4.0,74,0.00,,,0.01,meteohub,2013-04-25 09:32:00,
2013-04-25 05:37:00,44.8,36.3,29.34,NE,45,1.0,4.0,72,0.00,,,0.01,meteohub,2013-04-25 09:37:00,
2013-04-25 05:42:00,44.8,36.3,29.35,North,1,0.0,4.0,72,0.00,,,0.01,meteohub,2013-04-25 09:42:00,
2013-04-25 05:47:00,44.6,36.1,29.35,NW,314,0.0,4.0,72,0.00,,,0.01,meteohub,2013-04-25 09:47:00,
2013-04-25 05:52:00,44.4,36.0,29.35,NNE,30,0.0,2.0,72,0.00,,,0.01,meteohub,2013-04-25 09:52:00,
2013-04-25 05:57:00,44.2,35.8,29.36,NE,41,0.0,2.0,72,0.00,,,0.01,meteohub,2013-04-25 09:57:00,
2013-04-25 06:02:00,44.2,35.8,29.36,NNE,15,0.0,2.0,72,0.00,,,0.01,meteohub,2013-04-25 10:02:00,
2013-04-25 06:07:00,44.2,35.4,29.36,NW,314,0.0,2.0,71,0.00,,,0.01,meteohub,2013-04-25 10:07:00,
2013-04-25 06:12:00,44.1,34.9,29.36,NNW,344,0.0,3.0,70,0.00,,,0.01,meteohub,2013-04-25 10:12:00,
2013-04-25 06:17:00,43.9,35.1,29.37,NNE,25,4.0,4.0,71,0.00,,,0.01,meteohub,2013-04-25 10:17:00,
2013-04-25 06:22:00,43.9,35.4,29.37,North,350,1.0,6.0,72,0.00,,,0.01,meteohub,2013-04-25 10:22:00,
2013-04-25 06:27:00,43.7,35.6,29.38,SSE,158,0.0,6.0,73,0.00,,,0.01,meteohub,2013-04-25 10:27:00,
2013-04-25 06:32:00,43.5,35.1,29.38,South,191,0.0,6.0,72,0.00,,,0.01,meteohub,2013-04-25 10:32:00,
2013-04-25 06:37:00,43.5,35.1,29.39,NW,304,2.0,5.0,72,0.00,,,0.01,meteohub,2013-04-25 10:37:00,
2013-04-25 06:42:00,43.3,34.9,29.39,ENE,63,2.0,5.0,72,0.00,,,0.01,meteohub,2013-04-25 10:42:00,
2013-04-25 06:47:00,43.3,34.5,29.39,West,269,0.0,2.0,71,0.00,,,0.01,meteohub,2013-04-25 10:47:00,
2013-04-25 06:52:00,43.2,34.3,29.39,WNW,290,0.0,2.0,71,0.00,,,0.01,meteohub,2013-04-25 10:52:00,
2013-04-25 06:57:00,43.0,34.5,29.40,WNW,290,0.0,2.0,72,0.00,,,0.01,meteohub,2013-04-25 10:57:00,
2013-04-25 07:02:00,42.6,33.8,29.40,WNW,290,1.0,2.0,71,0.00,,,0.01,meteohub,2013-04-25 11:02:00,
2013-04-25 07:07:00,42.4,34.0,29.40,NW,321,0.0,2.0,72,0.00,,,0.01,meteohub,2013-04-25 11:07:00,
2013-04-25 07:12:00,42.4,34.3,29.40,WSW,242,0.0,2.0,73,0.00,,,0.01,meteohub,2013-04-25 11:12:00,
2013-04-25 07:17:00,42.4,34.0,29.40,NE,41,0.0,2.0,72,0.00,,,0.01,meteohub,2013-04-25 11:17:00,
2013-04-25 07:22:00,43.0,34.5,29.40,NE,41,0.0,1.0,72,0.00,,,0.01,meteohub,2013-04-25 11:22:00,
2013-04-25 07:27:00,43.5,35.1,29.40,SE,139,0.0,3.0,72,0.00,,,0.01,meteohub,2013-04-25 11:27:00,
2013-04-25 07:32:00,44.1,35.2,29.41,East,96,1.0,3.0,71,0.00,,,0.01,meteohub,2013-04-25 11:32:00,
2013-04-25 07:37:00,44.1,34.9,29.42,ENE,75,0.0,3.0,70,0.00,,,0.01,meteohub,2013-04-25 11:37:00,
2013-04-25 07:42:00,44.4,36.0,29.42,ENE,78,0.0,2.0,72,0.00,,,0.01,meteohub,2013-04-25 11:42:00,
2013-04-25 07:47:00,44.8,35.6,29.42,North,5,2.0,2.0,70,0.00,,,0.01,meteohub,2013-04-25 11:47:00,
2013-04-25 07:52:00,45.1,35.6,29.42,ENE,68,1.0,8.0,69,0.00,,,0.01,meteohub,2013-04-25 11:52:00,
2013-04-25 07:57:00,45.5,35.6,29.42,NW,311,0.0,8.0,68,0.00,,,0.01,meteohub,2013-04-25 11:57:00,
2013-04-25 08:02:00,45.9,35.6,29.42,ESE,115,0.0,8.0,67,0.00,,,0.01,meteohub,2013-04-25 12:02:00,
2013-04-25 08:07:00,45.9,36.3,29.43,ESE,111,0.0,4.0,69,0.00,,,0.01,meteohub,2013-04-25 12:07:00,
2013-04-25 08:12:00,46.2,36.0,29.43,NNW,338,0.0,2.0,67,0.00,,,0.01,meteohub,2013-04-25 12:12:00,
2013-04-25 08:17:00,46.9,35.8,29.43,NNW,347,0.0,4.0,65,0.00,,,0.01,meteohub,2013-04-25 12:17:00,
2013-04-25 08:22:00,47.5,35.6,29.43,NE,36,1.0,4.0,63,0.00,,,0.01,meteohub,2013-04-25 12:22:00,
2013-04-25 08:27:00,47.7,35.6,29.44,North,11,0.0,5.0,63,0.00,,,0.01,meteohub,2013-04-25 12:27:00,
2013-04-25 08:32:00,48.0,36.0,29.44,North,352,3.0,5.0,63,0.00,,,0.01,meteohub,2013-04-25 12:32:00,
2013-04-25 08:37:00,48.6,36.5,29.44,NNW,338,0.0,5.0,63,0.00,,,0.01,meteohub,2013-04-25 12:37:00,
2013-04-25 08:42:00,48.7,36.0,29.44,NNE,25,3.0,5.0,61,0.00,,,0.01,meteohub,2013-04-25 12:42:00,
2013-04-25 08:47:00,48.7,36.3,29.44,NNW,332,0.0,5.0,62,0.00,,,0.01,meteohub,2013-04-25 12:47:00,
2013-04-25 08:52:00,48.9,36.1,29.44,SSE,151,0.0,4.0,61,0.00,,,0.01,meteohub,2013-04-25 12:52:00,
2013-04-25 08:57:00,48.7,36.3,29.44,ENE,65,1.0,4.0,62,0.00,,,0.01,meteohub,2013-04-25 12:57:00,
2013-04-25 09:02:00,48.9,36.1,29.44,NNW,347,1.0,4.0,61,0.00,,,0.01,meteohub,2013-04-25 13:02:00,
2013-04-25 09:07:00,49.3,35.6,29.44,ENE,75,2.0,4.0,59,0.00,,,0.01,meteohub,2013-04-25 13:07:00,
2013-04-25 09:12:00,49.6,37.2,29.44,WNW,294,1.0,4.0,62,0.00,,,0.01,meteohub,2013-04-25 13:12:00,
2013-04-25 09:17:00,49.8,36.9,29.44,NNE,32,2.0,6.0,61,0.00,,,0.01,meteohub,2013-04-25 13:17:00,
2013-04-25 09:22:00,50.2,36.0,29.44,East,94,1.0,6.0,58,0.00,,,0.01,meteohub,2013-04-25 13:22:00,
2013-04-25 09:27:00,50.4,35.8,29.44,WSW,247,0.0,6.0,57,0.00,,,0.01,meteohub,2013-04-25 13:27:00,
2013-04-25 09:32:00,50.4,35.8,29.44,WNW,293,2.0,5.0,57,0.00,,,0.01,meteohub,2013-04-25 13:32:00,
2013-04-25 09:37:00,50.9,36.7,29.45,SSE,158,2.0,5.0,58,0.00,,,0.01,meteohub,2013-04-25 13:37:00,
2013-04-25 09:42:00,51.3,36.5,29.45,SW,231,0.0,5.0,57,0.00,,,0.01,meteohub,2013-04-25 13:42:00,
2013-04-25 09:47:00,51.8,36.1,29.45,ENE,74,1.0,5.0,55,0.00,,,0.01,meteohub,2013-04-25 13:47:00,
2013-04-25 09:52:00,52.0,36.3,29.46,North,350,2.0,5.0,55,0.00,,,0.01,meteohub,2013-04-25 13:52:00,
2013-04-25 09:57:00,52.3,36.1,29.46,NW,319,2.0,5.0,54,0.00,,,0.01,meteohub,2013-04-25 13:57:00,
2013-04-25 10:03:00,52.9,38.1,29.46,SSE,155,1.0,5.0,57,0.00,,,0.01,meteohub,2013-04-25 14:03:00,
2013-04-25 10:08:00,54.9,37.6,29.46,ENE,63,0.0,4.0,52,0.00,,,0.01,meteohub,2013-04-25 14:08:00,
2013-04-25 10:13:00,55.0,35.2,29.46,SE,124,1.0,5.0,47,0.00,,,0.01,meteohub,2013-04-25 14:13:00,
2013-04-25 10:18:00,55.4,36.5,29.46,NW,316,2.0,7.0,49,0.00,,,0.01,meteohub,2013-04-25 14:18:00,
2013-04-25 10:23:00,55.2,36.9,29.47,ENE,64,1.0,7.0,50,0.00,,,0.01,meteohub,2013-04-25 14:23:00,
2013-04-25 10:28:00,55.2,36.0,29.47,South,173,8.0,8.0,48,0.00,,,0.01,meteohub,2013-04-25 14:28:00,
2013-04-25 10:33:00,55.6,36.7,29.46,East,84,2.0,8.0,49,0.00,,,0.01,meteohub,2013-04-25 14:33:00,
2013-04-25 10:38:00,56.1,35.6,29.46,ENE,61,3.0,8.0,46,0.00,,,0.01,meteohub,2013-04-25 14:38:00,
2013-04-25 10:43:00,55.9,36.0,29.46,NNE,15,1.0,8.0,47,0.00,,,0.01,meteohub,2013-04-25 14:43:00,
2013-04-25 10:48:00,56.5,36.5,29.47,NW,314,5.0,5.0,47,0.00,,,0.01,meteohub,2013-04-25 14:48:00,
2013-04-25 10:53:00,56.7,36.1,29.46,ENE,57,3.0,4.0,46,0.00,,,0.01,meteohub,2013-04-25 14:53:00,
2013-04-25 10:58:00,56.5,35.4,29.47,NNW,338,0.0,5.0,45,0.00,,,0.01,meteohub,2013-04-25 14:58:00,
2013-04-25 11:03:00,56.7,33.8,29.47,NNW,335,3.0,7.0,42,0.00,,,0.01,meteohub,2013-04-25 15:03:00,
2013-04-25 11:09:00,56.1,34.0,29.47,NE,44,1.0,7.0,43,0.00,,,0.01,meteohub,2013-04-25 15:09:00,
2013-04-25 11:14:00,56.5,32.4,29.47,ENE,60,4.0,7.0,40,0.00,,,0.01,meteohub,2013-04-25 15:14:00,
2013-04-25 11:19:00,57.0,32.4,29.47,East,84,2.0,5.0,39,0.00,,,0.01,meteohub,2013-04-25 15:19:00,
2013-04-25 11:24:00,58.3,34.7,29.47,SSW,208,0.0,5.0,41,0.00,,,0.01,meteohub,2013-04-25 15:24:00,
2013-04-25 11:29:00,58.8,34.0,29.47,NW,304,3.0,6.0,39,0.00,,,0.01,meteohub,2013-04-25 15:29:00,
2013-04-25 11:34:00,58.5,30.2,29.47,WNW,300,2.0,7.0,34,0.00,,,0.01,meteohub,2013-04-25 15:34:00,
2013-04-25 11:39:00,57.9,32.5,29.48,NW,319,2.0,8.0,38,0.00,,,0.01,meteohub,2013-04-25 15:39:00,
2013-04-25 11:44:00,58.1,29.8,29.48,NE,39,1.0,8.0,34,0.00,,,0.01,meteohub,2013-04-25 15:44:00,
2013-04-25 11:49:00,57.9,30.4,29.48,NE,53,1.0,5.0,35,0.00,,,0.01,meteohub,2013-04-25 15:49:00,
2013-04-25 11:54:00,58.5,32.4,29.48,WNW,294,0.0,5.0,37,0.00,,,0.01,meteohub,2013-04-25 15:54:00,
2013-04-25 11:59:00,58.3,30.7,29.48,North,0,2.0,5.0,35,0.00,,,0.01,meteohub,2013-04-25 15:59:00,
2013-04-25 12:05:00,57.7,28.8,29.48,NNW,328,2.0,5.0,33,0.00,,,0.01,meteohub,2013-04-25 16:05:00,
2013-04-25 12:10:00,57.2,31.1,29.48,NW,313,1.0,7.0,37,0.00,,,0.01,meteohub,2013-04-25 16:10:00,
2013-04-25 12:15:00,56.7,30.0,29.49,NW,324,2.0,7.0,36,0.00,,,0.01,meteohub,2013-04-25 16:15:00,
2013-04-25 12:20:00,56.1,32.2,29.48,ENE,70,1.0,7.0,40,0.00,,,0.01,meteohub,2013-04-25 16:20:00,
2013-04-25 12:25:00,56.8,32.7,29.48,NW,323,4.0,5.0,40,0.00,,,0.01,meteohub,2013-04-25 16:25:00,
2013-04-25 12:30:00,57.6,31.5,29.48,NE,48,2.0,5.0,37,0.00,,,0.01,meteohub,2013-04-25 16:30:00,
2013-04-25 12:35:00,58.3,32.2,29.48,ENE,65,2.0,6.0,37,0.00,,,0.01,meteohub,2013-04-25 16:35:00,
2013-04-25 12:40:00,59.2,32.2,29.48,East,85,3.0,6.0,36,0.00,,,0.01,meteohub,2013-04-25 16:40:00,
2013-04-25 12:45:00,59.9,31.5,29.49,NW,323,1.0,6.0,34,0.00,,,0.01,meteohub,2013-04-25 16:45:00,
2013-04-25 12:50:00,59.5,33.3,29.48,SSW,206,3.0,6.0,37,0.00,,,0.01,meteohub,2013-04-25 16:50:00,
2013-04-25 12:55:00,59.5,34.5,29.48,NW,309,1.0,7.0,39,0.00,,,0.01,meteohub,2013-04-25 16:55:00,
2013-04-25 13:01:00,59.5,29.7,29.48,NNE,32,3.0,7.0,32,0.00,,,0.01,meteohub,2013-04-25 17:01:00,
2013-04-25 13:06:00,59.4,31.6,29.48,East,91,4.0,7.0,35,0.00,,,0.01,meteohub,2013-04-25 17:06:00,
2013-04-25 13:11:00,59.4,31.6,29.48,NW,321,2.0,5.0,35,0.00,,,0.01,meteohub,2013-04-25 17:11:00,
2013-04-25 13:16:00,59.2,30.7,29.48,NW,309,1.0,5.0,34,0.00,,,0.01,meteohub,2013-04-25 17:16:00,
2013-04-25 13:21:00,59.2,30.0,29.48,North,1,1.0,5.0,33,0.00,,,0.01,meteohub,2013-04-25 17:21:00,
2013-04-25 13:26:00,59.7,29.8,29.48,NW,315,1.0,5.0,32,0.00,,,0.01,meteohub,2013-04-25 17:26:00,
2013-04-25 13:31:00,60.1,33.1,29.48,East,96,1.0,7.0,36,0.00,,,0.01,meteohub,2013-04-25 17:31:00,
2013-04-25 13:36:00,60.8,33.6,29.48,NNW,342,2.0,7.0,36,0.00,,,0.01,meteohub,2013-04-25 17:36:00,
2013-04-25 13:41:00,60.6,31.3,29.48,NW,321,3.0,7.0,33,0.00,,,0.01,meteohub,2013-04-25 17:41:00,
2013-04-25 13:46:00,60.4,32.0,29.48,ENE,75,1.0,3.0,34,0.00,,,0.01,meteohub,2013-04-25 17:46:00,
2013-04-25 13:52:00,60.8,33.6,29.48,SE,141,1.0,5.0,36,0.00,,,0.01,meteohub,2013-04-25 17:52:00,
2013-04-25 13:57:00,61.0,33.1,29.48,SSE,153,3.0,5.0,35,0.00,,,0.01,meteohub,2013-04-25 17:57:00,
2013-04-25 14:02:00,61.5,32.2,29.48,NE,36,2.0,5.0,33,0.00,,,0.01,meteohub,2013-04-25 18:02:00,
2013-04-25 14:07:00,61.3,32.0,29.47,WNW,300,3.0,5.0,33,0.00,,,0.01,meteohub,2013-04-25 18:07:00,
2013-04-25 14:12:00,60.8,31.5,29.47,NE,54,2.0,7.0,33,0.00,,,0.01,meteohub,2013-04-25 18:12:00,
2013-04-25 14:17:00,61.3,32.7,29.48,South,176,3.0,7.0,34,0.00,,,0.01,meteohub,2013-04-25 18:17:00,
2013-04-25 14:22:00,61.3,30.4,29.47,WNW,303,2.0,7.0,31,0.00,,,0.01,meteohub,2013-04-25 18:22:00,
2013-04-25 14:27:00,61.5,32.9,29.47,WNW,300,1.0,4.0,34,0.00,,,0.01,meteohub,2013-04-25 18:27:00,
2013-04-25 14:33:00,61.9,31.6,29.47,NE,36,2.0,4.0,32,0.00,,,0.01,meteohub,2013-04-25 18:33:00,
2013-04-25 14:38:00,61.9,32.5,29.47,NNW,333,1.0,4.0,33,0.00,,,0.01,meteohub,2013-04-25 18:38:00,
2013-04-25 14:43:00,61.3,30.4,29.47,SW,228,1.0,3.0,31,0.00,,,0.01,meteohub,2013-04-25 18:43:00,
2013-04-25 14:48:00,61.3,29.7,29.47,NW,323,1.0,4.0,30,0.00,,,0.01,meteohub,2013-04-25 18:48:00,
2013-04-25 14:53:00,61.9,31.6,29.47,SSE,149,3.0,4.0,32,0.00,,,0.01,meteohub,2013-04-25 18:53:00,
2013-04-25 14:58:00,61.5,28.0,29.47,NE,52,2.0,4.0,28,0.00,,,0.01,meteohub,2013-04-25 18:58:00,
2013-04-25 15:03:00,61.3,30.4,29.47,WNW,296,0.0,4.0,31,0.00,,,0.01,meteohub,2013-04-25 19:03:00,
2013-04-25 15:08:00,61.3,32.7,29.47,South,171,4.0,4.0,34,0.00,,,0.01,meteohub,2013-04-25 19:08:00,
2013-04-25 15:13:00,61.5,32.2,29.47,NW,315,1.0,4.0,33,0.00,,,0.01,meteohub,2013-04-25 19:13:00,
2013-04-25 15:18:00,62.1,33.4,29.47,NW,319,2.0,4.0,34,0.00,,,0.01,meteohub,2013-04-25 19:18:00,
2013-04-25 15:23:00,62.1,31.8,29.47,NW,315,0.0,4.0,32,0.00,,,0.01,meteohub,2013-04-25 19:23:00,
2013-04-25 15:28:00,61.9,30.0,29.46,NE,53,1.0,3.0,30,0.00,,,0.01,meteohub,2013-04-25 19:28:00,
2013-04-25 15:34:00,61.9,32.5,29.47,SSE,152,1.0,4.0,33,0.00,,,0.01,meteohub,2013-04-25 19:34:00,
2013-04-25 15:39:00,62.2,32.0,29.47,ENE,63,0.0,6.0,32,0.00,,,0.01,meteohub,2013-04-25 19:39:00,
2013-04-25 15:44:00,62.2,28.8,29.47,NNW,343,1.0,6.0,28,0.00,,,0.01,meteohub,2013-04-25 19:44:00,
2013-04-25 15:49:00,62.1,29.5,29.46,North,11,1.0,6.0,29,0.00,,,0.01,meteohub,2013-04-25 19:49:00,
2013-04-25 15:54:00,62.2,31.3,29.47,SSW,212,1.0,4.0,31,0.00,,,0.01,meteohub,2013-04-25 19:54:00,
2013-04-25 15:59:00,62.2,30.4,29.47,NW,309,0.0,4.0,30,0.00,,,0.01,meteohub,2013-04-25 19:59:00,
2013-04-25 16:04:00,62.6,30.7,29.47,NNW,328,1.0,3.0,30,0.00,,,0.01,meteohub,2013-04-25 20:04:00,
2013-04-25 16:09:00,62.4,30.6,29.47,NNE,15,1.0,3.0,30,0.00,,,0.01,meteohub,2013-04-25 20:09:00,
2013-04-25 16:14:00,61.9,30.0,29.47,WNW,286,2.0,3.0,30,0.00,,,0.01,meteohub,2013-04-25 20:14:00,
2013-04-25 16:19:00,61.3,29.7,29.47,WNW,302,2.0,5.0,30,0.00,,,0.01,meteohub,2013-04-25 20:19:00,
2013-04-25 16:24:00,61.2,31.8,29.47,NE,37,1.0,5.0,33,0.00,,,0.01,meteohub,2013-04-25 20:24:00,
2013-04-25 16:30:00,61.3,32.0,29.47,NNW,341,0.0,5.0,33,0.00,,,0.01,meteohub,2013-04-25 20:30:00,
2013-04-25 16:35:00,61.5,32.2,29.47,NW,316,1.0,2.0,33,0.00,,,0.01,meteohub,2013-04-25 20:35:00,
2013-04-25 16:40:00,61.2,30.2,29.47,WNW,303,4.0,4.0,31,0.00,,,0.01,meteohub,2013-04-25 20:40:00,
2013-04-25 16:45:00,60.4,31.3,29.47,NW,306,0.0,5.0,33,0.00,,,0.01,meteohub,2013-04-25 20:45:00,
2013-04-25 16:50:00,60.4,33.4,29.47,SSE,155,0.0,5.0,36,0.00,,,0.01,meteohub,2013-04-25 20:50:00,
2013-04-25 16:55:00,60.6,31.3,29.47,NW,313,0.0,3.0,33,0.00,,,0.01,meteohub,2013-04-25 20:55:00,
2013-04-25 17:00:00,60.4,30.4,29.47,NNW,330,0.0,3.0,32,0.00,,,0.01,meteohub,2013-04-25 21:00:00,
2013-04-25 17:05:00,60.4,28.0,29.47,WNW,291,1.0,3.0,29,0.00,,,0.01,meteohub,2013-04-25 21:05:00,
2013-04-25 17:10:00,59.7,28.2,29.47,NNW,330,0.0,3.0,30,0.00,,,0.01,meteohub,2013-04-25 21:10:00,
2013-04-25 17:15:00,59.2,29.3,29.47,NW,316,2.0,3.0,32,0.00,,,0.01,meteohub,2013-04-25 21:15:00,
2013-04-25 17:21:00,58.8,29.8,29.47,NNW,340,2.0,4.0,33,0.00,,,0.01,meteohub,2013-04-25 21:21:00,
2013-04-25 17:26:00,58.3,28.6,29.47,NW,314,0.0,4.0,32,0.00,,,0.01,meteohub,2013-04-25 21:26:00,
2013-04-25 17:31:00,58.1,30.6,29.48,NE,51,0.0,4.0,35,0.00,,,0.01,meteohub,2013-04-25 21:31:00,
2013-04-25 17:36:00,57.9,29.7,29.48,NNE,16,0.0,2.0,34,0.00,,,0.01,meteohub,2013-04-25 21:36:00,
2013-04-25 17:41:00,57.7,30.9,29.48,ESE,120,0.0,2.0,36,0.00,,,0.01,meteohub,2013-04-25 21:41:00,
2013-04-25 17:46:00,57.6,27.9,29.48,SSW,201,0.0,2.0,32,0.00,,,0.01,meteohub,2013-04-25 21:46:00,
2013-04-25 17:51:00,57.4,27.7,29.48,SSE,162,0.0,2.0,32,0.00,,,0.01,meteohub,2013-04-25 21:51:00,
2013-04-25 17:56:00,57.0,28.9,29.48,WNW,302,0.0,5.0,34,0.00,,,0.01,meteohub,2013-04-25 21:56:00,
2013-04-25 18:01:00,56.8,26.6,29.48,NW,311,0.0,5.0,31,0.00,,,0.01,meteohub,2013-04-25 22:01:00,
2013-04-25 18:07:00,56.7,26.4,29.48,NW,311,1.0,3.0,31,0.00,,,0.01,meteohub,2013-04-25 22:07:00,
2013-04-25 18:12:00,56.5,28.4,29.48,NW,304,0.0,3.0,34,0.00,,,0.01,meteohub,2013-04-25 22:12:00,
2013-04-25 18:17:00,56.1,27.3,29.48,WNW,297,0.0,3.0,33,0.00,,,0.01,meteohub,2013-04-25 22:17:00,
2013-04-25 18:22:00,55.9,27.3,29.49,South,186,0.0,3.0,33,0.00,,,0.01,meteohub,2013-04-25 22:22:00,
2013-04-25 18:27:00,55.8,27.1,29.49,SSW,211,0.0,3.0,33,0.00,,,0.01,meteohub,2013-04-25 22:27:00,
2013-04-25 18:32:00,55.6,27.7,29.49,West,279,0.0,1.0,34,0.00,,,0.01,meteohub,2013-04-25 22:32:00,
2013-04-25 18:37:00,55.4,26.8,29.49,West,280,0.0,1.0,33,0.00,,,0.01,meteohub,2013-04-25 22:37:00,
2013-04-25 18:42:00,55.0,25.7,29.49,West,280,0.0,1.0,32,0.00,,,0.01,meteohub,2013-04-25 22:42:00,
2013-04-25 18:47:00,54.7,26.1,29.49,West,279,0.0,0.0,33,0.00,,,0.01,meteohub,2013-04-25 22:47:00,
2013-04-25 18:52:00,54.7,26.8,29.49,SSW,212,0.0,1.0,34,0.00,,,0.01,meteohub,2013-04-25 22:52:00,
2013-04-25 18:57:00,54.5,26.8,29.49,SSW,212,0.0,1.0,34,0.00,,,0.01,meteohub,2013-04-25 22:57:00,
2013-04-25 19:02:00,54.3,26.6,29.49,WSW,240,0.0,1.0,34,0.00,,,0.01,meteohub,2013-04-25 23:02:00,
2013-04-25 19:07:00,54.3,26.6,29.49,WSW,241,0.0,1.0,34,0.00,,,0.01,meteohub,2013-04-25 23:07:00,
2013-04-25 19:12:00,54.1,27.1,29.49,WSW,253,0.0,1.0,35,0.00,,,0.01,meteohub,2013-04-25 23:12:00,
2013-04-25 19:17:00,54.0,29.5,29.50,WSW,253,0.0,1.0,39,0.00,,,0.01,meteohub,2013-04-25 23:17:00,
2013-04-25 19:22:00,53.8,29.5,29.50,West,279,0.0,1.0,39,0.00,,,0.01,meteohub,2013-04-25 23:22:00,
2013-04-25 19:27:00,53.2,30.2,29.50,West,279,0.0,1.0,41,0.00,,,0.01,meteohub,2013-04-25 23:27:00,
2013-04-25 19:32:00,52.5,29.5,29.50,West,279,0.0,1.0,41,0.00,,,0.01,meteohub,2013-04-25 23:32:00,
2013-04-25 19:37:00,52.2,29.1,29.51,West,279,0.0,0.0,41,0.00,,,0.01,meteohub,2013-04-25 23:37:00,
2013-04-25 19:42:00,51.6,30.9,29.50,West,279,0.0,0.0,45,0.00,,,0.01,meteohub,2013-04-25 23:42:00,
2013-04-25 19:47:00,51.1,31.1,29.50,West,279,0.0,0.0,46,0.00,,,0.01,meteohub,2013-04-25 23:47:00,
2013-04-25 19:52:00,50.5,31.6,29.51,West,279,0.0,0.0,48,0.00,,,0.01,meteohub,2013-04-25 23:52:00,
2013-04-25 19:57:00,49.8,32.0,29.51,West,280,0.0,0.0,50,0.00,,,0.01,meteohub,2013-04-25 23:57:00,
2013-04-25 20:03:00,49.3,32.9,29.51,West,279,0.0,0.0,53,0.00,,,0.01,meteohub,2013-04-26 00:03:00,
2013-04-25 20:08:00,48.6,32.7,29.51,West,280,0.0,0.0,54,0.00,,,0.00,meteohub,2013-04-26 00:08:00,
2013-04-25 20:13:00,48.0,33.1,29.52,West,280,0.0,0.0,56,0.00,,,0.00,meteohub,2013-04-26 00:13:00,
2013-04-25 20:18:00,47.7,33.6,29.52,West,280,0.0,0.0,58,0.00,,,0.00,meteohub,2013-04-26 00:18:00,
2013-04-25 20:23:00,47.1,32.7,29.52,West,280,0.0,0.0,57,0.00,,,0.00,meteohub,2013-04-26 00:23:00,
2013-04-25 20:28:00,46.8,34.0,29.52,West,280,0.0,0.0,61,0.00,,,0.00,meteohub,2013-04-26 00:28:00,
2013-04-25 20:33:00,46.2,33.4,29.52,West,280,0.0,0.0,61,0.00,,,0.00,meteohub,2013-04-26 00:33:00,
2013-04-25 20:39:00,45.9,33.6,29.52,West,280,0.0,0.0,62,0.00,,,0.00,meteohub,2013-04-26 00:39:00,
2013-04-25 20:44:00,45.7,34.2,29.52,West,280,0.0,0.0,64,0.00,,,0.00,meteohub,2013-04-26 00:44:00,
2013-04-25 20:49:00,45.1,33.3,29.52,West,280,0.0,0.0,63,0.00,,,0.00,meteohub,2013-04-26 00:49:00,
2013-04-25 20:54:00,44.8,32.9,29.53,West,280,0.0,0.0,63,0.00,,,0.00,meteohub,2013-04-26 00:54:00,
2013-04-25 20:59:00,44.4,32.5,29.53,West,280,0.0,0.0,63,0.00,,,0.00,meteohub,2013-04-26 00:59:00,
2013-04-25 21:04:00,44.1,33.8,29.54,West,280,0.0,0.0,67,0.00,,,0.00,meteohub,2013-04-26 01:04:00,
2013-04-25 21:09:00,43.7,33.4,29.54,West,281,0.0,0.0,67,0.00,,,0.00,meteohub,2013-04-26 01:09:00,
2013-04-25 21:14:00,43.5,32.5,29.54,West,280,0.0,0.0,65,0.00,,,0.00,meteohub,2013-04-26 01:14:00,
2013-04-25 21:19:00,43.3,33.4,29.54,West,280,0.0,0.0,68,0.00,,,0.00,meteohub,2013-04-26 01:19:00,
2013-04-25 21:24:00,43.0,33.1,29.55,West,280,0.0,0.0,68,0.00,,,0.00,meteohub,2013-04-26 01:24:00,
2013-04-25 21:30:00,42.6,32.7,29.55,West,280,0.0,0.0,68,0.00,,,0.00,meteohub,2013-04-26 01:30:00,
2013-04-25 21:35:00,42.4,33.1,29.55,West,280,0.0,0.0,69,0.00,,,0.00,meteohub,2013-04-26 01:35:00,
2013-04-25 21:40:00,42.1,32.7,29.55,West,280,0.0,0.0,69,0.00,,,0.00,meteohub,2013-04-26 01:40:00,
2013-04-25 21:45:00,41.9,32.2,29.55,West,280,0.0,0.0,68,0.00,,,0.00,meteohub,2013-04-26 01:45:00,
2013-04-25 21:50:00,41.7,32.0,29.55,West,280,0.0,0.0,68,0.00,,,0.00,meteohub,2013-04-26 01:50:00,
2013-04-25 21:55:00,41.5,32.2,29.55,West,280,0.0,0.0,69,0.00,,,0.00,meteohub,2013-04-26 01:55:00,
2013-04-25 22:00:00,41.5,32.5,29.56,West,280,0.0,1.0,70,0.00,,,0.00,meteohub,2013-04-26 02:00:00,
2013-04-25 22:05:00,41.4,33.4,29.56,West,280,0.0,1.0,73,0.00,,,0.00,meteohub,2013-04-26 02:05:00,
2013-04-25 22:10:00,41.0,32.0,29.56,West,280,0.0,1.0,70,0.00,,,0.00,meteohub,2013-04-26 02:10:00,
2013-04-25 22:15:00,40.8,31.8,29.56,West,280,0.0,1.0,70,0.00,,,0.00,meteohub,2013-04-26 02:15:00,
2013-04-25 22:20:00,40.6,32.0,29.56,West,280,0.0,1.0,71,0.00,,,0.00,meteohub,2013-04-26 02:20:00,
2013-04-25 22:26:00,40.5,31.8,29.56,West,280,0.0,1.0,71,0.00,,,0.00,meteohub,2013-04-26 02:26:00,
2013-04-25 22:31:00,40.3,32.4,29.56,West,280,0.0,0.0,73,0.00,,,0.00,meteohub,2013-04-26 02:31:00,
2013-04-25 22:36:00,39.9,32.0,29.56,West,280,0.0,0.0,73,0.00,,,0.00,meteohub,2013-04-26 02:36:00,
2013-04-25 22:41:00,39.7,31.8,29.56,West,280,0.0,0.0,73,0.00,,,0.00,meteohub,2013-04-26 02:41:00,
2013-04-25 22:46:00,39.6,31.6,29.56,West,280,0.0,0.0,73,0.00,,,0.00,meteohub,2013-04-26 02:46:00,
2013-04-25 22:51:00,39.4,31.5,29.56,West,280,0.0,0.0,73,0.00,,,0.00,meteohub,2013-04-26 02:51:00,
2013-04-25 22:56:00,39.0,31.1,29.57,West,280,0.0,0.0,73,0.00,,,0.00,meteohub,2013-04-26 02:56:00,
2013-04-25 23:01:00,38.8,31.3,29.57,West,280,0.0,0.0,74,0.00,,,0.00,meteohub,2013-04-26 03:01:00,
2013-04-25 23:06:00,38.7,31.5,29.57,West,280,0.0,0.0,75,0.00,,,0.00,meteohub,2013-04-26 03:06:00,
2013-04-25 23:11:00,38.5,30.9,29.57,West,280,0.0,0.0,74,0.00,,,0.00,meteohub,2013-04-26 03:11:00,
2013-04-25 23:17:00,38.5,30.6,29.57,West,280,0.0,0.0,73,0.00,,,0.00,meteohub,2013-04-26 03:17:00,
2013-04-25 23:22:00,38.1,30.9,29.57,West,280,0.0,0.0,75,0.00,,,0.00,meteohub,2013-04-26 03:22:00,
2013-04-25 23:27:00,37.9,30.4,29.58,West,280,0.0,0.0,74,0.00,,,0.00,meteohub,2013-04-26 03:27:00,
2013-04-25 23:32:00,37.8,30.9,29.58,West,280,0.0,0.0,76,0.00,,,0.00,meteohub,2013-04-26 03:32:00,
2013-04-25 23:37:00,37.6,31.1,29.58,West,280,0.0,0.0,77,0.00,,,0.00,meteohub,2013-04-26 03:37:00,
2013-04-25 23:42:00,37.6,30.7,29.58,West,280,0.0,0.0,76,0.00,,,0.00,meteohub,2013-04-26 03:42:00,
2013-04-25 23:47:00,37.2,30.9,29.58,West,280,0.0,0.0,78,0.00,,,0.00,meteohub,2013-04-26 03:47:00,
2013-04-25 23:52:00,37.2,30.7,29.58,West,279,0.0,0.0,77,0.00,,,0.00,meteohub,2013-04-26 03:52:00,
2013-04-25 23:57:00,37.0,30.6,29.58,West,280,0.0,0.0,77,0.00,,,0.00,meteohub,2013-04-26 03:57:00,